Location: Coed Ely
(51.5661°N, 3.4150°W)
Time: 19:42:34
(UTC+00:00)

In-Cosmos 22 Rocket - Pass Details

Date: 28 January 2021
Orbit: 789 x 889 km, 81.2° (Epoch: 27 February)

Event Time Altitude Azimuth Distance (km) Brightness Sun altitude
Rises 19:16:43 0° 180° (S) 3,473 7.4 -21.7°
Reaches altitude 10° 19:19:12 10° 178° (S) 2,531 6.7 -22.1°
Maximum altitude 19:24:53 65° 98° (E) 954 4.1 -23.0°
Enters shadow 19:29:44 14° 19° (NNE) 2,208 6.2 -23.7°
Exits shadow 19:32:35 - 16° (NNE) 3,293 7.1 -24.2°
Sets 19:32:54 0° 15° (NNE) 3,417 7.2 -24.2°
